EHI
0 0 0 0 0 0 0 0 0 1 2 2 2 2 1 0 0 0 1 4 11 14 14 13 12 10 7 5 5 2 0 0 0 0 0 0 0 0 0 0 0 0 0
0 0 0 0 0 0 0 0 0 0 1 1 1 1 0 0 0 0 0 3 8 11 12 12 12 11 8 7 6 4 2 1 1 1 0 0 0 0 0 0 0 0 0
0 0 0 0 0 0 0 0 0 0 0 0 0 0 0 0 0 0 0 1 3 5 8 10 11 11 10 9 8 6 5 5 3 2 1 1 0 0 0 1 1 1 0
0 0 0 0 0 0 0 0 0 0 0 0 0 0 0 0 0 0 0 0 0 1 3 7 11 12 11 9 8 8 9 8 5 3 3 2 1 0 1 2 2 2 1
1 1 1 1 1 0 0 0 0 0 0 0 0 0 0 0 0 0 0 0 0 0 1 4 8 10 10 9 8 9 11 10 7 5 4 3 2 2 2 3 3 3 3
2 2 2 2 1 0 0 0 0 0 0 0 0 0 0 0 0 0 0 0 0 1 1 1 3 6 9 9 8 9 11 11 9 8 6 5 5 5 5 5 4 3 3
2 2 2 2 1 0 0 0 0 0 0 0 0 0 0 0 0 0 0 0 0 0 0 0 1 3 5 6 8 10 10 10 10 9 9 8 8 8 8 7 6 4 3
1 1 1 1 0 0 0 1 1 0 0 0 0 0 0 0 0 0 0 0 0 0 0 0 0 1 1 3 5 8 9 9 10 10 10 9 9 9 9 8 6 4 4
0 0 0 0 0 0 1 2 1 0 0 0 0 0 0 0 0 0 0 0 0 0 0 1 1 0 0 1 3 5 7 8 9 9 9 9 8 8 9 8 7 5 5
0 0 0 1 1 1 2 2 1 0 0 0 0 0 0 0 0 0 0 0 0 0 0 1 2 2 1 1 2 4 6 7 8 8 8 7 7 7 7 8 7 6 6
1 1 2 2 2 2 1 1 1 1 1 1 1 1 1 1 1 0 0 1 1 0 0 1 2 3 3 2 3 4 5 6 7 7 7 7 6 6 7 7 7 7 6
2 3 3 3 3 3 2 1 2 3 3 3 3 2 2 2 2 1 1 2 2 1 0 0 1 2 3 2 3 5 5 5 6 6 6 6 6 6 6 7 7 7 6
5 6 6 5 5 5 5 3 3 4 5 5 5 3 3 4 4 3 3 3 2 1 0 0 0 1 1 1 2 4 5 4 4 4 5 5 5 5 6 6 6 6 6
8 9 9 9 8 8 7 6 4 4 5 6 6 5 4 4 4 3 2 2 1 1 0 0 0 0 0 0 0 2 3 3 3 2 2 2 2 3 4 4 5 5 5
8 8 10 10 10 9 9 8 7 5 5 5 6 6 5 5 3 2 1 1 0 0 0 0 0 0 0 0 0 1 2 2 1 1 0 0 0 1 1 1 2 2 2
6 7 8 9 8 8 9 9 8 6 5 4 4 5 6 6 5 2 1 0 0 0 1 0 0 0 0 0 0 0 1 1 0 0 0 0 0 0 0 0 0 0 0
8 8 8 7 7 7 9 10 9 7 5 4 4 5 6 6 6 5 3 1 1 1 1 0 0 0 0 0 1 1 1 1 1 1 1 1 0 0 0 0 0 0 0
9 10 9 7 7 8 9 10 10 9 7 7 6 6 6 6 6 6 5 4 3 2 2 1 1 0 0 1 1 2 2 2 2 2 2 2 1 0 0 0 0 0 0
9 10 9 7 7 8 9 11 12 11 9 8 8 7 5 5 6 6 6 6 5 5 3 3 2 1 1 2 1 1 1 1 1 1 1 1 1 0 0 0 0 0 0
9 8 8 8 8 9 10 11 11 10 8 7 8 7 5 4 5 6 6 6 6 5 4 3 3 2 2 2 1 0 0 0 0 0 0 0 0 0 0 0 0 0 0
10 9 9 10 10 10 9 8 6 6 5 6 6 5 4 3 3 3 3 3 3 3 3 2 2 2 1 1 0 0 0 0 0 0 0 0 0 0 0 0 0 0 0
11 11 11 11 12 11 8 4 2 2 3 4 4 3 3 3 3 2 1 1 1 1 1 1 1 1 0 0 0 0 0 0 0 0 0 0 0 0 0 0 0 0 0
11 10 10 10 11 9 5 1 0 0 1 2 2 2 3 3 4 3 1 0 0 0 0 0 0 0 0 0 0 0 0 0 0 0 0 0 0 0 0 0 0 0 0
11 10 8 7 8 7 3 1 0 0 0 0 1 1 2 3 4 3 2 1 0 0 0 0 0 0 0 0 0 0 0 0 0 0 0 0 0 0 0 0 0 0 0
12 10 7 6 7 6 3 1 0 0 0 0 0 0 2 3 3 1 1 2 1 1 0 0 0 0 0 0 0 0 0 0 0 0 0 0 0 0 0 0 0 0 0
12 10 7 7 8 6 2 0 0 0 0 0 0 0 1 2 1 0 1 2 2 2 1 0 0 0 0 0 0 0 0 0 0 0 0 0 0 0 0 0 0 0 0
Wind_Speed
2 1 1 1 1 1 2 2 1 1 1 2 2 3 3 3 3 2 2 6 7 7 8 8 8 8 8 7 6 6 5 5 5 5 5 4 4 4 5 4 4 4 4
2 2 1 1 1 1 2 2 2 2 1 1 1 2 3 3 3 3 2 3 5 6 6 6 7 7 7 7 6 5 5 5 5 5 5 5 4 4 4 4 4 4 3
3 2 2 1 1 2 2 2 2 2 2 2 1 1 2 2 2 2 2 1 1 4 6 6 6 5 6 6 5 5 5 5 5 4 4 4 4 4 4 4 4 4 3
3 3 2 1 1 2 2 2 2 2 2 1 1 1 1 2 2 2 2 2 1 1 3 4 4 5 5 5 5 5 5 5 5 4 4 4 4 4 4 4 4 4 4
2 2 1 1 1 2 2 3 2 2 2 2 2 1 1 1 2 2 2 3 3 3 2 2 4 4 4 4 4 4 5 5 5 4 5 5 5 4 4 4 4 4 4
2 2 1 1 1 2 2 2 2 2 2 2 2 2 1 1 1 1 2 2 2 3 2 2 1 2 3 4 4 4 5 5 5 5 6 5 5 4 4 4 4 4 4
2 2 1 1 1 2 2 3 3 3 2 2 3 2 1 1 1 1 1 2 1 1 2 2 1 1 1 2 2 3 4 5 5 5 5 5 5 4 4 4 4 4 4
2 3 2 2 2 2 2 2 3 2 1 2 3 2 1 2 2 1 1 2 1 0 1 2 1 1 1 1 1 2 3 4 4 5 5 5 5 4 4 4 4 4 4
2 2 3 2 2 2 2 2 3 3 2 1 2 3 3 2 1 1 0 1 1 0 0 1 1 1 1 1 1 2 3 3 4 4 4 4 3 3 3 4 4 4 4
2 2 2 3 2 2 2 2 2 2 3 2 0 1 2 4 3 0 1 1 1 1 1 0 1 1 1 1 1 2 2 3 3 3 3 3 3 2 3 3 4 4 4
1 2 2 2 2 2 2 2 1 2 2 2 2 1 1 1 2 3 1 1 1 1 1 1 1 1 1 1 1 2 2 3 3 3 3 3 3 2 3 3 3 4 4
1 1 2 2 2 2 2 2 2 2 2 2 2 2 2 2 2 2 2 2 1 2 1 1 1 1 1 2 2 3 3 3 2 2 2 2 2 3 3 2 2 2 2
1 2 2 2 2 2 2 2 2 2 2 2 2 2 2 2 2 3 3 2 1 1 1 1 1 1 1 1 1 2 3 3 3 3 2 2 2 2 2 2 1 1 1
3 2 2 2 2 2 2 2 1 2 2 2 2 2 2 2 2 3 3 3 1 1 1 2 1 2 1 1 2 2 2 3 3 3 3 3 2 2 2 2 1 1 0
2 2 2 2 2 2 2 2 1 1 1 2 2 2 2 2 2 2 3 4 4 2 3 3 2 2 2 1 2 1 2 3 3 3 3 3 3 3 2 2 2 1 1
2 2 2 2 1 1 1 1 1 1 2 2 2 2 2 2 2 2 3 3 3 3 3 3 3 2 3 2 3 2 3 4 4 4 4 4 4 3 3 3 3 3 3
3 3 2 2 2 1 1 1 1 1 2 2 2 2 2 2 2 2 2 2 2 2 2 2 1 1 2 3 2 2 2 2 2 5 5 4 4 4 4 4 4 3 3
3 3 3 2 2 2 1 1 1 1 2 2 2 1 2 1 2 2 2 2 2 3 3 2 1 1 2 3 3 2 2 2 2 4 5 5 5 5 5 5 4 4 4
3 2 3 3 2 2 2 2 2 2 2 2 2 2 2 2 2 2 2 2 2 2 2 3 2 1 1 1 1 1 2 1 2 3 4 4 5 5 5 5 5 4 4
3 3 3 3 3 2 2 2 2 1 1 2 2 2 2 2 3 3 2 2 2 2 2 2 2 1 1 1 2 1 1 2 3 3 3 3 4 5 5 6 6 5 5
4 3 3 2 2 2 2 2 2 1 1 1 1 1 2 2 3 3 2 2 2 2 1 2 2 1 1 1 2 2 3 2 2 2 2 2 2 2 4 5 6 7 7
2 2 3 3 2 2 2 3 2 1 1 1 1 1 1 1 2 2 3 3 4 4 3 2 2 2 3 3 2 2 2 1 2 3 2 3 2 3 4 3 6 7 7
3 2 2 2 2 1 1 2 2 2 1 1 1 1 0 0 1 1 1 2 2 4 5 4 4 4 4 4 4 3 3 3 4 3 2 3 2 4 4 4 7 8 9
3 2 2 2 2 2 2 2 2 2 1 1 1 2 1 1 1 2 1 1 1 2 3 4 4 5 5 5 6 6 5 3 2 1 3 3 3 4 4 4 7 9 9
2 2 2 2 3 2 3 2 2 2 1 1 1 1 1 2 2 2 2 1 2 3 3 3 4 5 6 6 5 3 2 2 2 3 2 2 2 2 3 4 5 9 10
2 2 2 2 3 2 3 3 3 2 1 1 1 1 2 2 3 2 2 2 3 4 2 2 2 3 3 4 6 6 5 4 2 3 3 3 2 1 2 3 3 4 6
Wind_Direction
149 151 164 164 178 164 168 166 161 149 150 167 172 158 165 155 158 171 173 176 181 184 187 188 186 188 188 192 199 197 195 195 196 195 196 197 201 200 204 204 209 214 207
154 152 167 175 179 176 180 177 170 163 160 151 148 151 160 155 151 160 164 172 177 180 185 185 185 189 190 194 193 191 195 200 197 196 197 201 207 207 201 200 209 214 210
151 147 154 172 187 175 171 162 150 136 129 124 129 144 152 159 154 154 152 154 169 171 177 179 183 182 184 190 195 196 197 200 200 199 196 194 204 208 205 204 206 210 210
151 143 150 176 184 164 159 153 144 134 131 132 136 145 140 139 146 161 150 155 152 172 179 178 184 186 187 197 204 206 202 199 197 204 204 197 199 203 213 216 211 205 208
145 144 163 189 170 149 148 153 140 143 142 142 144 134 122 130 152 159 150 155 160 171 179 181 187 190 191 202 212 210 205 203 198 209 215 211 210 210 216 225 216 209 210
149 143 155 165 135 133 135 136 140 140 145 151 134 102 91 137 128 129 148 148 156 169 176 191 203 205 200 206 214 217 216 209 206 216 221 221 221 220 217 222 222 217 214
156 147 136 138 135 139 149 142 133 130 130 123 104 67 22 37 75 97 118 124 141 165 164 181 203 220 225 216 219 228 227 219 216 221 224 222 221 219 220 220 219 215 218
163 157 148 153 149 135 127 136 133 130 150 138 128 112 51 5 1 41 95 128 134 125 161 172 186 198 217 237 222 223 232 229 226 226 223 225 223 215 216 225 231 225 221
173 163 158 155 148 145 159 171 163 153 164 185 151 143 143 190 293 334 330 128 134 114 215 187 177 195 188 222 242 234 227 212 213 219 214 213 213 209 214 219 229 223 218
175 166 157 158 160 157 161 176 166 161 155 173 248 173 160 158 152 197 324 292 203 203 239 209 176 198 188 214 199 178 188 191 191 198 199 199 195 198 210 212 224 226 224
185 172 169 158 164 165 173 173 152 156 163 170 174 157 113 103 130 145 197 260 314 292 254 206 189 190 190 202 214 183 165 170 178 186 185 193 202 209 214 215 229 230 227
212 198 180 167 174 173 179 184 178 168 177 173 172 166 162 165 173 158 171 194 229 268 271 239 204 207 206 200 193 164 159 154 161 170 174 186 201 211 218 221 237 243 232
204 222 203 187 184 187 186 174 165 180 185 179 189 193 187 183 166 155 149 174 209 257 256 265 244 219 214 212 203 174 166 162 169 167 164 168 176 190 200 206 215 213 237
204 205 198 191 192 188 188 171 168 199 191 195 203 197 192 198 176 165 163 156 163 271 265 247 266 231 221 210 220 199 184 176 177 178 177 177 168 166 179 184 183 179 178
200 198 184 181 184 188 187 173 187 208 193 202 205 199 199 213 204 194 175 165 162 193 239 230 222 234 221 210 208 199 202 197 192 189 186 185 185 180 183 179 179 176 135
198 177 171 177 179 183 178 163 190 203 194 221 210 204 218 219 217 203 193 192 175 172 209 224 217 218 212 216 207 215 216 204 202 195 197 196 195 191 192 189 184 167 153
184 180 174 166 169 177 166 164 229 218 205 231 237 217 230 215 206 207 201 196 187 166 191 246 223 211 195 209 215 228 223 212 217 206 207 205 203 201 200 196 187 181 178
186 182 177 173 184 183 178 186 227 234 209 219 235 225 240 225 209 206 191 197 203 190 174 197 214 198 215 208 203 213 219 206 217 216 216 214 212 207 204 200 200 199 197
186 184 178 185 195 193 193 205 202 215 225 222 220 216 234 211 221 214 199 201 209 201 165 167 200 205 218 200 189 236 228 231 227 228 224 219 215 211 207 206 207 207 203
183 191 189 194 198 196 200 204 193 212 230 240 237 224 223 210 208 207 205 203 193 176 170 170 184 206 211 204 171 201 243 250 243 238 234 228 224 222 218 213 213 213 212
190 190 188 200 201 198 210 202 200 195 201 248 273 253 233 215 210 202 192 190 179 180 180 184 190 189 213 189 202 206 223 239 257 232 228 237 227 237 232 225 220 220 219
186 178 192 198 205 221 216 198 182 180 190 202 248 286 271 208 200 189 186 186 181 183 192 193 200 205 221 218 210 206 199 200 253 231 194 242 216 236 237 221 220 217 217
183 185 198 197 207 231 190 179 177 163 177 220 226 232 252 234 156 157 186 184 200 210 197 191 205 218 212 210 197 209 212 214 228 223 177 241 231 237 239 230 220 220 220
184 193 200 200 195 216 199 181 165 129 135 231 235 214 200 223 214 173 184 219 249 245 230 209 209 222 221 211 200 204 211 224 261 237 175 218 234 235 242 240 230 224 225
185 197 195 190 187 216 202 174 142 115 114 289 286 256 204 225 232 182 167 221 281 286 269 242 230 236 236 226 206 183 189 188 250 254 202 199 233 249 248 240 237 227 226
188 184 184 190 186 191 195 182 166 142 148 278 300 285 249 248 253 224 201 213 246 265 277 296 281 267 250 234 211 199 196 200 217 245 223 195 215 196 267 257 240 233 231